Regional Weather Roundup
Issued by NWS Albany, NY

Home | Current Version | Previous Version | Text Only | Print | Product List | Glossary On
Versions: 1 2 3 4 5 6 7 8 9 10 11 12 13 14 15 16 17 18 19 20 21 22 23 24 25 26 27 28 29 30 31 32 33 34 35 36 37 38 39 40 41 42 43 44 45 46 47 48 49 50
000
ASUS41 KALY 231710
RWRALY

NEW YORK STATE HOURLY WEATHER ROUNDUP
NATIONAL WEATHER SERVICE ALBANY NY
1200 PM EST MON JAN 23 2017

NOTE: "FAIR" INDICATES FEW OR NO CLOUDS BELOW 12,000 FEET WITH NO
SIGNIFICANT WEATHER AND/OR NO OBSTRUCTIONS TO VISIBILITY.

NYZ032-033-038>043-046>054-057>066-NYZ062>081-082-084-231800-
EAST


CITY           SKY/WX    TMP DP  RH WIND       PRES   REMARKS
ALBANY         CLOUDY    39  24  55 E12G21    29.96S WCI  32
GLENS FALLS    CLOUDY    37  24  59 E14       29.96F WCI  28
POUGHKEEPSIE   CLOUDY    38  27  64 NE14G29   29.86F WCI  30
NEWBURGH       CLOUDY    37  30  75 E21G32    29.85F WCI  27
MONTGOMERY     CLOUDY    39  29  67 E14G23    29.83F WCI  31
WHITE PLAINS   CLOUDY    40  28  62 NE17G28   29.79F WCI  31
ISLIP          LGT RAIN  39  33  79 E28G43    29.78F WCI  28
NEW YORK CITY  CLOUDY    42  30  62 E35G46    29.79F
CENTRAL PARK   CLOUDY    40  31  70 E20G35    29.81F WCI  30
$$

NYZ005>009-017-018-044>046-055-056-231800-
CENTRAL


CITY           SKY/WX    TMP DP  RH WIND       PRES   REMARKS
FULTON         CLOUDY    40  30  67 E8G22     29.82F WCI  34
SYRACUSE       CLOUDY    39  31  72 E12G21    29.82F WCI  32
ROME           CLOUDY    37  30  75 E12G28    29.89F WCI  29
ELMIRA         CLOUDY    43  32  65 E13       29.73F
BINGHAMTON     CLOUDY    37  31  78 E13       29.73F WCI  29
MONTICELLO     CLOUDY    34  27  75 E16G33    29.79F WCI  23
$$

NYZ026>034-041>043-087-231800-
NORTH


CITY           SKY/WX    TMP DP  RH WIND       PRES   REMARKS
WATERTOWN      CLOUDY    38  34  85 NE14      29.88F WCI  30
FORT DRUM      NOT AVBL
OGDENSBURG     CLOUDY    34  30  87 NE6       29.94R WCI  28
MASSENA        CLOUDY    32  26  78 NE20      29.97F WCI  20
SARANAC LAKE   CLOUDY    34  29  82 E6        29.86F WCI  29
PLATTSBURGH    CLOUDY    37  28  70 SE10      30.00F WCI  30
$$

NYZ001>004-010>016-019>021-085-231800-
WEST


CITY           SKY/WX    TMP DP  RH WIND       PRES   REMARKS
NIAGARA FALLS  CLOUDY    45  39  79 E16       29.73F
BUFFALO        PTSUNNY   44  40  85 NE12      29.72F
DUNKIRK        MOSUNNY   44  41  89 NE12      29.67F
JAMESTOWN      CLOUDY    46  37  71 E13       29.63F
WELLSVILLE     CLOUDY    40  36  86 E10       29.68F WCI  33
ROCHESTER      CLOUDY    43  36  76 E13       29.77F
PENN YAN       CLOUDY    42  33  70 E7        29.76F
$$

             KEY
       WCI = WIND CHILL INDEX
       VSB = VISIBILITY
       HX  = HEAT INDEX
$$



USA.gov is the U.S. government's official web portal to all federal, state and local government web resources and services.